GW7381 Weather Reports


time (UTC)temp
F
wind
direction
speed
knots
gust
knots
rain 1hr
in
rain 24hr
in
rain mn
in
humidity
%
barometer
mb
20260906221543 94 318 1.7 5.2 0.00 0.00 0.00 26 1016.3
20260906221025 95 39 1.7 5.2 0.00 0.00 0.00 27 1016.3
20260906220524 95 296 0.9 4.3 0.00 0.00 0.00 26 1016.4
20260906220042 95 292 0.9 4.3 0.00 0.00 0.00 25 1016.4
20260906215525 95 217 0.9 5.2 0.00 0.00 0.00 26 1016.5
20260906215025 95 259 1.7 5.2 0.00 0.00 0.00 26 1016.6
20260906214548 95 290 0.9 7.8 0.00 0.00 0.00 26 1016.6
20260906214024 94 66 0.9 7.8 0.00 0.00 0.00 25 1016.7
20260906213521 94 34 2.6 7.8 0.00 0.00 0.00 26 1016.8
20260906213043 94 314 1.7 5.2 0.00 0.00 0.00 27 1016.8
20260906212520 94 277 0.9 4.3 0.00 0.00 0.00 27 1016.9
20260906212019 94 352 0.9 6.1 0.00 0.00 0.00 26 1017.0
20260906211541 93 257 1.7 6.1 0.00 0.00 0.00 27 1017.2
20260906211020 93 260 1.7 6.1 0.00 0.00 0.00 27 1017.3
20260906210523 92 183 1.7 6.1 0.00 0.00 0.00 28 1017.6
20260906210041 93 350 1.7 4.3 0.00 0.00 0.00 26 1017.6
20260906205525 93 230 0.9 6.1 0.00 0.00 0.00 28 1017.6
20260906205022 92 256 0.9 6.1 0.00 0.00 0.00 28 1017.7
20260906204543 92 49 0.9 7.8 0.00 0.00 0.00 27 1017.8
20260906204020 91 5 1.7 7.8 0.00 0.00 0.00 28 1018.1
20260906203521 91 26 1.7 8.7 0.00 0.00 0.00 28 1018.1
20260906203044 91 46 2.6 8.7 0.00 0.00 0.00 28 1018.0
20260906202519 91 0 0.9 8.7 0.00 0.00 0.00 30 1018.1
20260906202021 91 308 2.6 8.7 0.00 0.00 0.00 29 1018.2
20260906201541 91 40 0.9 5.2 0.00 0.00 0.00 30 1018.2
20260906201020 91 101 1.7 7.0 0.00 0.00 0.00 31 1018.3
20260906200524 91 340 3.5 7.8 0.00 0.00 0.00 30 1018.4
20260906200041 91 0 0.9 7.8 0.00 0.00 0.00 30 1018.4
20260906195523 90 360 0.9 7.0 0.00 0.00 0.00 30 1018.5
20260906195024 90 34 2.6 7.0 0.00 0.00 0.00 30 1018.5
20260906194546 90 107 0.9 5.2 0.00 0.00 0.00 31 1018.5
20260906194023 89 84 1.7 7.0 0.00 0.00 0.00 31 1018.6
20260906193523 89 59 0.9 7.0 0.00 0.00 0.00 32 1018.7
20260906193042 88 5 2.6 7.8 0.00 0.00 0.00 31 1018.9
20260906192521 88 327 2.6 7.8 0.00 0.00 0.00 30 1018.9
20260906192022 88 0 0.9 4.3 0.00 0.00 0.00 30 1019.0
20260906191544 88 337 0.9 7.0 0.00 0.00 0.00 30 1019.1
20260906191020 87 61 1.7 7.0 0.00 0.00 0.00 31 1019.2
20260906190523 88 344 0.9 7.0 0.00 0.00 0.00 30 1019.3
20260906190108 87 0 0.9 7.0 0.00 0.00 0.00 29 1019.4
20260906185524 88 210 1.7 6.1 0.00 0.00 0.00 30 1019.6
20260906185023 87 76 0.9 6.1 0.00 0.00 0.00 31 1019.7
20260906184552 87 320 0.9 6.1 0.00 0.00 0.00 32 1019.7
20260906184024 87 297 1.7 6.1 0.00 0.00 0.00 33 1019.8
20260906183526 86 261 0.9 4.3 0.00 0.00 0.00 35 1019.8
20260906183048 85 211 0.9 4.3 0.00 0.00 0.00 36 1020.0
20260906182521 85 296 0.9 5.2 0.00 0.00 0.00 34 1020.0
20260906182024 85 346 2.6 5.2 0.00 0.00 0.00 34 1020.2
20260906181541 85 38 0.9 4.3 0.00 0.00 0.00 35 1020.3
20260906181024 85 314 1.7 4.3 0.00 0.00 0.00 36 1020.3
20260906180524 84 0 0.0 3.5 0.00 0.00 0.00 36 1020.4
20260906180048 84 272 0.9 5.2 0.00 0.00 0.00 37 1020.5
20260906175524 84 283 1.7 5.2 0.00 0.00 0.00 37 1020.6
20260906175023 84 283 0.9 5.2 0.00 0.00 0.00 39 1020.6
20260906174548 83 322 0.9 3.5 0.00 0.00 0.00 38 1020.7
20260906174022 83 90 1.7 3.5 0.00 0.00 0.00 38 1020.9
20260906173523 83 5 1.7 4.3 0.00 0.00 0.00 38 1021.0
20260906173043 83 103 1.7 4.3 0.00 0.00 0.00 39 1021.1
20260906172518 82 81 0.9 4.3 0.00 0.00 0.00 41 1021.2
20260906172022 82 36 0.0 4.3 0.00 0.00 0.00 42 1021.3
20260906171541 81 297 1.7 4.3 0.00 0.00 0.00 43 1021.4
20260906171024 82 261 0.9 3.5 0.00 0.00 0.00 41 1021.5
20260906170524 81 5 0.0 2.6 0.00 0.00 0.00 44 1021.7
20260906170052 80 0 0.0 1.7 0.00 0.00 0.00 44 1021.8
20260906165523 80 0 0.0 2.6 0.00 0.00 0.00 45 1021.9
20260906165023 79 0 0.0 2.6 0.00 0.00 0.00 45 1021.9
20260906164549 79 0 0.0 2.6 0.00 0.00 0.00 46 1021.9
20260906164023 78 238 0.9 2.6 0.00 0.00 0.00 48 1021.9
20260906163520 77 227 0.9 2.6 0.00 0.00 0.00 48 1021.9
20260906163045 77 164 0.0 3.5 0.00 0.00 0.00 49 1021.8
20260906162521 77 178 0.9 3.5 0.00 0.00 0.00 49 1021.9
20260906162019 77 208 1.7 3.5 0.00 0.00 0.00 50 1021.8
20260906161541 77 215 0.9 3.5 0.00 0.00 0.00 51 1021.7
20260906161023 76 121 0.0 2.6 0.00 0.00 0.00 52 1021.7
20260906160520 76 0 0.9 2.6 0.00 0.00 0.00 53 1021.7
20260906160054 75 0 0.0 2.6 0.00 0.00 0.00 53 1021.8
20260906155524 75 60 0.9 2.6 0.00 0.00 0.00 54 1021.7
20260906155024 74 239 0.9 2.6 0.00 0.00 0.00 56 1021.7
20260906154555 74 246 0.9 3.5 0.00 0.00 0.00 58 1021.6
20260906154024 73 0 0.9 4.3 0.00 0.00 0.00 59 1021.7
20260906153524 73 156 0.9 4.3 0.00 0.00 0.00 59 1021.8
20260906153042 73 205 0.9 3.5 0.00 0.00 0.00 59 1021.8
20260906152521 73 0 0.9 3.5 0.00 0.00 0.00 60 1021.9
20260906152020 73 169 0.0 2.6 0.00 0.00 0.00 60 1021.9
20260906151549 73 272 0.0 3.5 0.00 0.00 0.00 62 1021.9
20260906151018 72 0 0.0 5.2 0.00 0.00 0.00 63 1021.9
20260906150524 72 213 0.9 5.2 0.00 0.00 0.00 63 1022.0
20260906150043 72 225 0.0 2.6 0.00 0.00 0.00 64 1021.9
20260906145521 71 0 0.9 3.5 0.00 0.00 0.00 65 1021.9
20260906145020 70 248 0.9 3.5 0.00 0.00 0.00 65 1021.8
20260906144542 70 239 0.0 3.5 0.00 0.00 0.00 67 1021.9
20260906144023 69 253 0.9 3.5 0.00 0.00 0.00 67 1021.9
20260906143521 69 206 0.9 3.5 0.00 0.00 0.00 68 1022.0
20260906143041 68 228 0.9 2.6 0.00 0.00 0.00 68 1021.9
20260906142519 68 220 0.9 2.6 0.00 0.00 0.00 69 1021.9
20260906142023 67 268 0.0 2.6 0.00 0.00 0.00 69 1021.8
20260906141541 67 0 0.0 2.6 0.00 0.00 0.00 70 1021.7
20260906141024 66 179 0.9 2.6 0.00 0.00 0.00 70 1021.9
20260906140519 66 209 0.9 3.5 0.00 0.00 0.00 70 1021.9
20260906140047 65 195 0.9 3.5 0.00 0.00 0.00 71 1021.9
20260906135525 65 0 0.0 1.7 0.00 0.00 0.00 72 1021.9
20260906135023 64 174 0.9 1.7 0.00 0.00 0.00 72 1021.9
20260906134553 64 0 0.0 1.7 0.00 0.00 0.00 74 1022.0
20260906134024 63 0 0.0 1.7 0.00 0.00 0.00 75 1021.9
20260906133521 63 0 0.0 1.7 0.00 0.00 0.00 75 1021.8
20260906133106 63 174 0.0 2.6 0.00 0.00 0.00 76 1021.6
20260906132518 62 0 0.0 3.5 0.00 0.00 0.00 76 1021.6
20260906132027 62 0 0.0 3.5 0.00 0.00 0.00 77 1021.7
20260906131541 62 184 0.9 2.6 0.00 0.00 0.00 78 1021.5
20260906131024 62 0 0.0 2.6 0.00 0.00 0.00 78 1021.5
20260906130525 62 184 0.0 1.7 0.00 0.00 0.00 79 1021.4
20260906130049 62 209 0.0 2.6 0.00 0.00 0.00 79 1021.4
20260906125523 62 0 0.0 2.6 0.00 0.00 0.00 79 1021.4
20260906125025 63 209 0.0 2.6 0.00 0.00 0.00 79 1021.4
20260906124543 63 0 0.0 1.7 0.00 0.00 0.00 78 1021.4
20260906124021 63 266 0.0 1.7 0.00 0.00 0.00 78 1021.4
20260906123520 63 0 0.0 1.7 0.00 0.00 0.00 77 1021.5
20260906123042 63 0 0.0 1.7 0.00 0.00 0.00 77 1021.4
20260906122518 63 0 0.0 0.9 0.00 0.00 0.00 77 1021.4
20260906122021 63 0 0.0 0.9 0.00 0.00 0.00 77 1021.4
20260906121548 63 0 0.0 0.9 0.00 0.00 0.00 76 1021.4
20260906121025 63 0 0.0 0.9 0.00 0.00 0.00 75 1021.3
20260906120524 63 0 0.0 2.6 0.00 0.00 0.00 75 1021.4
20260906120048 63 266 0.0 2.6 0.00 0.00 0.00 75 1021.4
20260906115526 64 0 0.0 0.9 0.00 0.00 0.00 74 1021.4
20260906115022 64 0 0.0 1.7 0.00 0.00 0.00 74 1021.3
20260906114548 64 251 0.0 2.6 0.00 0.00 0.00 74 1021.2
20260906114021 64 0 0.0 2.6 0.00 0.00 0.00 74 1021.3
20260906113519 64 0 0.0 3.5 0.00 0.00 0.00 74 1021.3
20260906113042 64 251 0.0 3.5 0.00 0.00 0.00 73 1021.3
20260906112520 64 0 0.0 2.6 0.00 0.00 0.00 73 1021.3
20260906112021 64 206 0.0 2.6 0.00 0.00 0.00 72 1021.1
20260906111543 64 0 0.0 2.6 0.00 0.00 0.00 72 1021.1
20260906111024 64 0 0.9 2.6 0.00 0.00 0.00 71 1021.0
20260906110524 64 210 0.9 2.6 0.00 0.00 0.00 71 1021.0
20260906110046 65 221 0.9 2.6 0.00 0.00 0.00 69 1021.0
20260906105524 65 195 0.9 2.6 0.00 0.00 0.00 68 1020.9
20260906105024 65 200 0.9 4.3 0.00 0.00 0.00 67 1020.8
20260906104551 65 167 0.9 4.3 0.00 0.00 0.00 66 1020.8
20260906104021 65 189 1.7 4.3 0.00 0.00 0.00 66 1020.8
20260906103521 65 0 0.9 4.3 0.00 0.00 0.00 65 1020.7
20260906103042 65 217 1.7 4.3 0.00 0.00 0.00 64 1020.7
20260906102518 65 248 0.0 2.6 0.00 0.00 0.00 61 1020.8
20260906102017 66 0 0.9 2.6 0.00 0.00 0.00 60 1020.7
20260906101547 66 219 0.0 2.6 0.00 0.00 0.00 59 1020.7
20260906101020 66 0 0.0 2.6 0.00 0.00 0.00 59 1020.7
20260906100520 66 0 0.0 2.6 0.00 0.00 0.00 58 1020.7
20260906100043 67 0 0.0 2.6 0.00 0.00 0.00 56 1020.8
20260906095521 67 204 0.9 2.6 0.00 0.00 0.00 56 1020.8
20260906095021 67 227 0.0 2.6 0.00 0.00 0.00 54 1020.8
20260906094540 67 192 0.0 2.6 0.00 0.00 0.00 54 1020.9
20260906094021 67 192 0.0 2.6 0.00 0.00 0.00 54 1020.9
20260906093523 67 192 0.0 1.7 0.00 0.00 0.00 53 1020.8
20260906093045 67 192 0.0 1.7 0.00 0.00 0.00 53 1020.7
20260906092520 67 0 0.0 1.7 0.00 0.00 0.00 53 1020.7
20260906092023 67 112 0.0 0.9 0.00 0.00 0.00 54 1020.7
20260906091541 68 0 0.0 1.7 0.00 0.00 0.00 55 1020.8
20260906091020 68 0 0.0 1.7 0.00 0.00 0.00 55 1020.6
20260906090525 68 0 0.0 1.7 0.00 0.00 0.00 54 1020.5
20260906090050 68 0 0.0 0.0 0.00 0.00 0.00 52 1020.5
20260906085522 69 0 0.0 0.0 0.00 0.00 0.00 52 1020.3
20260906085023 69 0 0.0 0.9 0.00 0.00 0.00 50 1020.3
20260906084542 69 0 0.0 0.9 0.00 0.00 0.00 50 1020.2
20260906084020 69 0 0.0 0.9 0.00 0.00 0.00 49 1020.3
20260906083521 70 0 0.0 0.9 0.00 0.00 0.00 49 1020.3
20260906083041 70 0 0.0 0.9 0.00 0.00 0.00 49 1020.2
20260906082521 70 0 0.0 0.9 0.00 0.00 0.00 49 1020.3
20260906082021 70 0 0.0 1.7 0.00 0.00 0.00 48 1020.3
20260906081541 70 0 0.0 1.7 0.00 0.00 0.00 48 1020.4
20260906081020 71 190 0.0 0.9 0.00 0.00 0.00 47 1020.3
20260906080524 71 0 0.0 0.9 0.00 0.00 0.00 47 1020.2
20260906080042 71 0 0.0 0.9 0.00 0.00 0.00 47 1020.3
20260906075523 71 0 0.0 0.9 0.00 0.00 0.00 47 1020.1
20260906075021 71 0 0.0 2.6 0.00 0.00 0.00 47 1020.1
20260906074542 71 0 0.0 2.6 0.00 0.00 0.00 47 1019.9
20260906074023 71 189 0.0 2.6 0.00 0.00 0.00 47 1019.8
20260906073521 71 0 0.0 3.5 0.00 0.00 0.00 48 1019.9
20260906073041 72 0 0.9 5.2 0.00 0.00 0.00 47 1019.9
20260906072520 72 0 0.9 5.2 0.00 0.00 0.00 47 1019.8
20260906072023 72 229 2.6 5.2 0.00 0.00 0.00 47 1019.7
20260906071542 72 213 1.7 5.2 0.00 0.00 0.00 47 1019.7
20260906071024 71 163 1.7 4.3 0.00 0.00 0.00 48 1019.8
20260906070521 72 235 0.9 4.3 0.00 0.00 0.00 50 1019.8
20260906070041 72 155 0.9 3.5 0.00 0.00 0.00 50 1019.8
20260906065523 72 191 0.9 3.5 0.00 0.00 0.00 51 1019.9
20260906065024 72 198 0.9 3.5 0.00 0.00 0.00 48 1019.9
20260906064542 72 0 0.0 4.3 0.00 0.00 0.00 48 1020.1
20260906064021 73 210 0.9 4.3 0.00 0.00 0.00 47 1020.1
20260906063521 73 189 0.9 4.3 0.00 0.00 0.00 45 1020.1
20260906063043 73 196 0.9 3.5 0.00 0.00 0.00 45 1020.2
20260906062522 74 194 0.9 2.6 0.00 0.00 0.00 44 1020.3
20260906062021 74 183 0.9 2.6 0.00 0.00 0.00 43 1020.3
20260906061541 74 0 0.0 1.7 0.00 0.00 0.00 42 1020.3
20260906061020 75 0 0.0 3.5 0.00 0.00 0.00 42 1020.3
20260906060523 75 0 0.0 3.5 0.00 0.00 0.00 41 1020.4
20260906060049 75 225 0.9 3.5 0.00 0.00 0.00 41 1020.4
20260906055523 75 126 0.9 3.5 0.00 0.00 0.00 40 1020.5
20260906055023 75 0 0.9 3.5 0.00 0.00 0.00 39 1020.4
20260906054547 75 166 0.0 1.7 0.00 0.00 0.00 38 1020.5
20260906054022 76 0 0.0 1.7 0.00 0.00 0.00 37 1020.5
20260906053520 76 131 0.0 1.7 0.00 0.00 0.00 37 1020.4
20260906053044 76 0 0.0 1.7 0.00 0.00 0.00 37 1020.4
20260906052523 76 0 0.0 1.7 0.00 0.00 0.00 38 1020.5
20260906052021 76 0 0.0 1.7 0.00 0.00 0.00 37 1020.6
20260906051541 76 0 0.0 1.7 0.00 0.00 0.00 37 1020.7
20260906051024 76 171 0.0 1.7 0.00 0.00 0.00 36 1020.8
20260906050520 76 0 0.0 2.6 0.00 0.00 0.00 36 1021.0
20260906050109 76 0 0.0 3.5 0.00 0.00 0.00 36 1021.1
20260906045523 76 177 0.9 3.5 0.00 0.00 0.00 37 1021.2
20260906045022 76 0 0.0 0.9 0.00 0.00 0.00 36 1021.2
20260906044542 75 0 0.0 1.7 0.00 0.00 0.00 36 1021.2
20260906044021 75 85 0.0 5.2 0.00 0.00 0.00 36 1021.1
20260906043518 75 85 0.9 5.2 0.00 0.00 0.00 36 1021.0
20260906043040 75 119 0.9 3.5 0.00 0.00 0.00 37 1021.0
20260906042519 75 83 0.9 2.6 0.00 0.00 0.00 37 1020.7
20260906042020 75 73 0.0 2.6 0.00 0.00 0.00 37 1020.5
20260906041546 75 0 0.0 0.9 0.00 0.00 0.00 36 1020.1
20260906041024 74 0 0.0 1.7 0.00 0.00 0.00 37 1019.9
20260906040524 75 0 0.0 1.7 0.00 0.00 0.00 38 1019.8
20260906040045 75 0 0.0 1.7 0.00 0.00 0.00 39 1019.8
20260906035522 75 213 0.0 1.7 0.00 0.00 0.00 38 1019.8
20260906035021 75 0 0.0 1.7 0.00 0.00 0.00 37 1019.7
20260906034545 75 0 0.0 0.9 0.00 0.00 0.00 37 1019.6
20260906034018 75 0 0.0 0.9 0.00 0.00 0.00 38 1019.6
20260906033520 76 0 0.0 1.7 0.00 0.00 0.00 37 1019.6
20260906033052 76 0 0.0 1.7 0.00 0.00 0.00 36 1019.6
20260906032520 77 213 0.9 1.7 0.00 0.00 0.00 35 1019.6
20260906032025 77 213 0.0 1.7 0.00 0.00 0.00 33 1019.6
20260906031545 78 0 0.0 0.9 0.00 0.00 0.00 33 1019.6
20260906031027 78 0 0.0 0.9 0.00 0.00 0.00 32 1019.5
20260906030523 78 0 0.0 0.9 0.00 0.00 0.00 32 1019.4
20260906030052 79 0 0.0 0.9 0.00 0.00 0.00 32 1019.2
20260906025521 79 0 0.0 0.0 0.00 0.00 0.00 31 1018.9
20260906025021 79 0 0.0 0.9 0.00 0.00 0.00 30 1018.8
20260906024544 80 0 0.0 0.9 0.00 0.00 0.00 30 1018.6
20260906024020 80 0 0.0 0.9 0.00 0.00 0.00 30 1018.5
20260906023528 80 0 0.0 0.9 0.00 0.00 0.00 30 1018.5
20260906023048 80 0 0.0 1.7 0.00 0.00 0.00 30 1018.6
20260906022521 80 0 0.0 1.7 0.00 0.00 0.00 30 1018.7
20260906022020 81 0 0.0 1.7 0.00 0.00 0.00 29 1018.7
20260906021548 81 0 0.0 1.7 0.00 0.00 0.00 29 1018.6
20260906021024 81 0 0.0 2.6 0.00 0.00 0.00 29 1018.5
20260906020521 81 212 0.0 2.6 0.00 0.00 0.00 29 1018.5
20260906020050 82 205 0.9 2.6 0.00 0.00 0.00 29 1018.4
20260906015524 82 177 0.9 3.5 0.00 0.00 0.00 28 1018.4
20260906015025 82 190 0.0 3.5 0.00 0.00 0.00 28 1018.3
20260906014554 83 236 0.9 4.3 0.00 0.00 0.00 27 1018.2
20260906014024 83 209 1.7 4.3 0.00 0.00 0.00 26 1018.1
20260906013522 84 227 1.7 4.3 0.00 0.00 0.00 26 1018.1
20260906013043 84 233 1.7 5.2 0.00 0.00 0.00 25 1018.0
20260906012521 84 203 1.7 6.1 0.00 0.00 0.00 25 1018.1
20260906012021 85 205 1.7 6.1 0.00 0.00 0.00 24 1018.0
20260906011542 86 177 1.7 7.0 0.00 0.00 0.00 23 1018.1
20260906011021 86 238 2.6 7.0 0.00 0.00 0.00 23 1018.0
20260906010521 87 240 1.7 7.0 0.00 0.00 0.00 22 1018.0
20260906010042 87 261 0.9 3.5 0.00 0.00 0.00 22 1017.9
20260906005522 88 196 0.9 3.5 0.00 0.00 0.00 22 1017.9
20260906005020 88 285 0.9 4.3 0.00 0.00 0.00 21 1018.0
20260906004543 88 246 0.9 5.2 0.00 0.00 0.00 21 1017.9
20260906004027 89 202 1.7 5.2 0.00 0.00 0.00 20 1017.8
20260906003524 90 188 0.9 3.5 0.00 0.00 0.00 20 1017.9
20260906003043 91 223 0.0 2.6 0.00 0.00 0.00 20 1017.9
20260906002521 91 261 0.0 2.6 0.00 0.00 0.00 19 1017.9
20260906002021 92 0 0.0 1.7 0.00 0.00 0.00 19 1017.9
20260906001542 93 235 0.0 3.5 0.00 0.00 0.00 18 1017.9
20260906001020 94 0 0.0 3.5 0.00 0.00 0.00 18 1017.8
20260906000520 95 234 0.9 2.6 0.00 0.00 0.00 17 1017.8
20260906000042 96 178 0.0 2.6 0.00 0.00 0.00 18 1017.7
20260905235526 96 0 0.0 2.6 0.00 0.00 0.00 16 1017.7
20260905235027 96 116 0.0 2.6 0.00 0.00 0.00 17 1017.7
20260905234540 97 130 0.0 1.7 0.00 0.00 0.00 18 1017.6
20260905234021 96 48 0.0 1.7 0.00 0.00 0.00 17 1017.7
20260905233524 97 154 0.0 2.6 0.00 0.00 0.00 16 1017.7
20260905233044 97 153 0.9 2.6 0.00 0.00 0.00 16 1017.7
20260905232524 97 157 0.0 3.5 0.00 0.00 0.00 17 1017.6
20260905232018 96 104 0.9 3.5 0.00 0.00 0.00 18 1017.7
20260905231554 95 131 0.0 2.6 0.00 0.00 0.00 18 1017.6
20260905231027 94 84 0.9 3.5 0.00 0.00 0.00 18 1017.7
20260905230525 93 352 0.0 3.5 0.00 0.00 0.00 18 1017.7
20260905230100 93 109 0.0 3.5 0.00 0.00 0.00 19 1017.7
20260905225526 93 343 0.9 1.7 0.00 0.00 0.00 20 1017.6
20260905225022 92 0 0.0 1.7 0.00 0.00 0.00 21 1017.6
20260905224542 92 0 0.0 1.7 0.00 0.00 0.00 19 1017.6
20260905224024 93 0 0.0 1.7 0.00 0.00 0.00 21 1017.6
20260905223521 93 0 0.0 2.6 0.00 0.00 0.00 21 1017.7
20260905223042 93 43 0.0 3.5 0.00 0.00 0.00 19 1017.7
20260905222521 93 44 0.9 3.5 0.00 0.00 0.00 18 1017.7
20260905222023 93 12 0.9 3.5 0.00 0.00 0.00 18 1017.7